Location: Audruicq
(50.8780°N, 2.0797°E)
Time: 08:11:17
(UTC+00:00)

SPOT 3 Rocket - Pass Details

Date: 15 May 2026
Orbit: 774 x 790 km, 98.5° (Epoch: 5 June)

Event Time Altitude Azimuth Distance (km) Brightness Sun altitude
Exits shadow 21:09:24 13° 167° (SSE) 2,098 5.2 -11.9°
Maximum altitude 21:13:58 83° 255° (WSW) 789 3.6 -12.3°
Drops below altitude 10° 21:19:08 10° 344° (NNW) 2,335 7.2 -12.8°
Sets 21:21:27 0° 345° (NNW) 3,266 8.2 -13.0°
